Regional Weather Roundup
Issued by NWS Charleston, WV

Home | Current Version | Previous Version | Graphics & Text | Print | Product List | Glossary On
Versions: 1 2 3 4 5 6 7 8 9 10 11 12 13 14 15 16 17 18 19 20 21 22 23 24 25 26 27 28 29 30 31 32 33 34 35 36 37 38 39 40 41 42 43 44 45 46 47 48 49 50
000
ASUS41 KRLX 300810
RWRRLX
West Virginia Regional Weather Roundup
National Weather Service Charleston WV
400 AM EDT SUN AUG 30 2015

Note: "fair" indicates few or no clouds below 12,000 feet with no
significant weather and/or obstructions to visibility.

WVZ003-300900-
Northern Panhandle of West Virginia

CITY           SKY/WX    TMP DP  RH WIND       PRES   REMARKS
WHEELING       PTCLDY    69  62  78 S7        30.09S
$$

WVZ009-300900-
Northwest West Virginia

CITY           SKY/WX    TMP DP  RH WIND       PRES   REMARKS
PARKERSBURG    MOCLDY    66  63  90 CALM      30.12R
$$

WVZ006-300900-
Western West Virginia

CITY           SKY/WX    TMP DP  RH WIND       PRES   REMARKS
HUNTINGTON     CLOUDY    67  65  93 S3        30.10S
$$

WVZ015-300900-
West Central West Virginia

CITY           SKY/WX    TMP DP  RH WIND       PRES   REMARKS
CHARLESTON     PTCLDY    63  62  97 CALM      30.11R FOG
$$

WVZ022-031-300900-
North Central West Virginia

CITY           SKY/WX    TMP DP  RH WIND       PRES   REMARKS
CLARKSBURG     CLEAR     62  60  93 CALM      30.12S
MORGANTOWN     PTCLDY    64  58  80 CALM      30.13R
$$

WVZ025-035-042-045-300900-
Southern West Virginia

CITY           SKY/WX    TMP DP  RH WIND       PRES   REMARKS
BECKLEY        PTCLDY    61  57  87 CALM      30.20S
LOGAN            N/A     66  63  88 CALM      30.15S
BLUEFIELD      MOCLDY    67  56  67 CALM      30.22S
LEWISBURG      FOG       59  57  94 CALM      30.20S VSB 1/2
$$

WVZ047-300900-
Northern Mountains of West Virginia

CITY           SKY/WX    TMP DP  RH WIND       PRES   REMARKS
ELKINS         FOG       55  53  93 CALM      30.19S VSB 1/2
$$

WVZ052-300900-
Eastern Panhandle of West Virginia

CITY           SKY/WX    TMP DP  RH WIND       PRES   REMARKS
MARTINSBURG    CLEAR     63  62  97 CALM      30.10R
PETERSBURG     CLEAR     58  58  98 CALM      30.14S FOG
$$


USA.gov is the U.S. government's official web portal to all federal, state and local government web resources and services.